Location: Unspecified
(0.0000°N, 0.0000°E)
Time: 17:01:47
(UTC+00:00)

Hubble Space Telescope - Pass Details

Date: 15 December 2018
Orbit: 537 x 540 km, 28.5° (Epoch: 11 December)

Event Time Altitude Azimuth Distance (km) Brightness Sun altitude
Rises 18:24:22 0° 248° (WSW) 2,672 7.1 -6.7°
Reaches altitude 10° 18:26:40 10° 253° (WSW) 1,781 5.2 -7.2°
Maximum altitude 18:30:40 51° 330° (NNW) 673 1.3 -8.1°
Enters shadow 18:34:40 10° 46° (NE) 1,771 2.8 -9.0°
